Location: Harwich
(41.7160°N, 69.9939°W)
Time: 11:30:46
(UTC+02:00)

Explorer 7 - Visible Passes

Search period start: 30 May 2024 00:00
Search period end: 09 June 2024 00:00
Orbit: 467 x 625 km, 50.3° (Epoch: 29 May)

Date Brightness Start Highest point End Pass type
(mag) Time Alt. Az. Time Alt. Az. Time Alt. Az.
30 May 6.5 02:31:51 10° SW 02:35:30 88° SSE 02:39:14 10° ENE visible
30 May 8.8 04:12:20 10° WNW 04:15:32 27° NNW 04:18:51 10° NE visible
30 May 9.0 05:52:58 10° NW 05:56:06 23° N 05:59:20 10° ENE visible
30 May 7.4 07:32:32 10° NW 07:36:23 53° NNE 07:37:02 47° ENE visible
30 May 9.2 09:21:58 - SSE 09:21:58 - SSE 09:12:22 10° WNW visible
31 May 8.9 04:05:37 10° WNW 04:08:43 25° N 04:11:55 10° NE visible
31 May 8.8 05:46:05 10° NW 05:49:17 25° N 05:52:35 10° ENE visible
31 May 7.8 07:25:35 10° NW 07:28:07 38° NW 07:28:07 38° NW visible
01 Jun 9.0 03:58:53 10° WNW 04:01:54 23° N 04:04:59 10° NE visible
01 Jun 8.7 05:39:09 10° NW 05:42:25 27° NNE 05:44:46 16° ENE visible
01 Jun 8.5 07:18:36 10° WNW 07:20:15 24° NW 07:20:15 24° NW visible
02 Jun 9.0 03:52:06 10° WNW 03:55:03 22° N 03:58:04 10° NE visible
02 Jun 8.4 05:32:10 10° NW 05:35:33 30° NNE 05:37:12 22° ENE visible
02 Jun 8.9 07:11:38 10° WNW 07:12:42 18° WNW 07:12:42 18° WNW visible
03 Jun 9.0 03:45:17 10° NW 03:48:12 21° N 03:51:11 10° NE visible
03 Jun 8.1 05:25:10 10° NW 05:28:38 34° NNE 05:29:48 28° NE visible
03 Jun 9.1 07:04:41 10° WNW 07:05:18 14° WNW 07:05:18 14° WNW visible
04 Jun 8.9 03:38:24 10° NW 03:41:19 21° N 03:44:19 10° NE visible
04 Jun 7.8 05:18:07 10° NW 05:21:42 40° NNE 05:22:28 35° NE visible
04 Jun 9.3 06:57:45 10° WNW 06:58:00 11° WNW 06:58:00 11° WNW visible
05 Jun 8.8 03:31:28 10° NW 03:34:26 22° N 03:37:27 10° ENE visible
05 Jun 7.3 05:11:04 10° NW 05:14:43 48° NNE 05:15:13 45° NE visible
06 Jun 8.7 03:24:29 10° NW 03:27:30 23° N 03:30:36 10° ENE visible
06 Jun 6.9 05:03:59 10° NW 05:07:42 60° NNE 05:08:00 58° NE visible
07 Jun 8.5 03:17:27 10° NW 03:20:34 25° NNE 03:23:45 10° ENE visible
07 Jun 6.5 04:56:54 10° NW 05:00:39 77° NNE 05:00:49 75° ENE visible
08 Jun 8.3 03:10:22 10° NW 03:13:35 27° NNE 03:16:52 10° ENE visible
08 Jun 6.4 04:49:49 10° WNW 04:53:33 82° SW 04:53:39 81° S visible
